Location: Frizzleburg
(41.0764°N, 80.4548°W)
Time: 06:47:14
(UTC+00:00)

CZ-2C R/B - Pass Details

Date: 17 November 2019
Orbit: 667 x 785 km, 98.1° (Epoch: 05 December)

Event Time Altitude Azimuth Distance (km) Brightness Sun altitude
Rises 09:44:00 0° 13° (NNE) 3,162 5.8 -27.7°
Reaches altitude 10° 09:46:19 10° 14° (NNE) 2,218 5.0 -27.3°
Enters shadow 09:51:06 83° 73° (ENE) 715 2.3 -26.4°
